Regional Weather Roundup
Issued by NWS Northern Indiana

Home | Current Version | Previous Version | Graphics & Text | Print | Product List | Glossary On
Versions: 1 2 3 4 5 6 7 8 9 10 11 12 13 14 15 16 17 18 19 20 21 22 23 24 25 26 27 28 29 30 31 32 33 34 35 36 37 38 39 40 41 42 43 44 45 46 47 48 49 50
059
ASUS43 KIWX 100900
RWRIWX

KIWX WEATHER ROUNDUP
NATIONAL WEATHER SERVICE NORTHERN INDIANA
400 AM EST WED FEB 10 2016

NOTE: "FAIR" INDICATES FEW OR NO CLOUDS BELOW 12,000 FEET WITH NO
SIGNIFICANT WEATHER AND/OR OBSTRUCTIONS TO VISIBILITY.

* THESE STATIONS ARE NOT UNDER NWS QUALITY CONTROL. THEY ALSO MAY NOT
  REPORT WEATHER SUCH AS PRECIPITATION OR FOG.

INZ001>027-101000-
NORTHERN INDIANA

CITY           SKY/WX    TMP DP  RH WIND       PRES   REMARKS
GARY*          CLOUDY    17   4  59 NW16      29.96S WCI   1
SOUTH BEND     SNOW      19  16  88 NW13      29.86R VSB 1/2 WCI   6
GOSHEN         LGT SNOW  19  15  84 W10       29.83R FOG     WCI   7
MONTICELLO*    CLOUDY    14   6  70 W14       29.94S WCI  -1
ANGOLA*        CLOUDY    19  16  86 W7        29.77S WCI  10
FORT WAYNE     FLURRIES  18  11  74 W17       29.84S WCI   3
PERU/GRISSOM   FLURRIES  14  10  82 W18       29.88S WCI  -3

$$
INZ028>050-101000-
CENTRAL INDIANA

CITY           SKY/WX    TMP DP  RH WIND       PRES   REMARKS
LAFAYETTE      LGT SNOW  13   8  81 W10       29.97R WCI   0
KOKOMO*        CLOUDY    14   9  79 W21       29.91R WCI  -4
MUNCIE*        LGT SNOW  16  10  77 W14       29.88S WCI   2
INDIANAPOLIS   FLURRIES  14   7  73 W15       29.95R WCI  -1

$$
MIZ043>046-050>051-056>058-064>065-071>073-077>080-101000-
SOUTHWEST LOWER MICHIGAN

CITY           SKY/WX    TMP DP  RH WIND       PRES   REMARKS
BATTLE CREEK   CLOUDY    18  11  74 NW10      29.79R WCI   6
BENTON HARBOR  LGT SNOW  21  16  81 NW12G21   29.85S WCI   9
COLDWATER*     LGT SNOW  20  17  88 W10       29.78R WCI   8
HILLSDALE*     CLOUDY    20  14  76 W12       29.74R WCI   8
HOLLAND        LGT SNOW  19  15  84 NW8       29.83S FOG     WCI   9
GRAND RAPIDS   LGT SNOW  19  14  81 NW16      29.79S WCI   4
KALAMAZOO      CLOUDY    19  12  74 NW12      29.80S WCI   7
STURGIS*       LGT SNOW  19  14  84 NW8       29.79S WCI   8
THREE RIVERS*  LGT SNOW  20  17  85 NW8       29.82R WCI  11

$$
OHZ001>008-015>018-024>025-101000-
NORTHWEST OHIO

CITY           SKY/WX    TMP DP  RH WIND       PRES   REMARKS
DEFIANCE       FLURRIES  21  15  78 W9        29.80S WCI  11
FINDLAY        FLURRIES  19  13  77 W18       29.79R WCI   4
TOLEDO EXPRESS CLOUDY    21  16  81 W14       29.76S WCI   8
TOLEDO METCALF CLOUDY    23  16  74 W16G22    29.77S WCI  10
LIMA           LGT SNOW  17  13  84 W15       29.81S FOG     WCI   2

$$
AND FOR LAKE MICHIGAN COASTAL AND OPEN LAKE BUOY OBSERVATIONS

STATION/POSITION TEMP    WIND        PRES    VSBY  WAVE
                 AIR SEA DIR/SP/G                  HT/PER
                 (F)     (DEG/KT/KT) (MB)    (MI)  (FT/S)
CALUMET HARBOR    15     300/ 14/ 20 1013.7R
MICHIGAN CITY     20     280/ 30/ 33   N/A
BURNS HARBOR      19     310/ 23/ 25 1013.5R
SAINT JOSEPH      23     330/ 21/ 27 1011.9R

$$
&&




USA.gov is the U.S. government's official web portal to all federal, state and local government web resources and services.